Location: Ellerstadt
(49.4644°N, 8.2615°E)
Time: 03:30:59
(UTC+00:00)

Cosmos 1486 Rocket - Pass Details

Date: 03 March 2021
Orbit: 758 x 784 km, 74.1° (Epoch: 16 April)

Event Time Altitude Azimuth Distance (km) Brightness Sun altitude
Rises 17:51:19 0° 336° (NNW) 3,255 7.6 -7.0°
Reaches altitude 10° 17:53:42 10° 337° (NNW) 2,328 6.8 -7.4°
Maximum altitude 17:59:00 87° 65° (ENE) 784 4.1 -8.2°
Drops below altitude 10° 18:04:19 10° 157° (SSE) 2,328 6.3 -9.1°
Sets 18:06:41 0° 158° (SSE) 3,255 7.0 -9.5°
